Regional Weather Roundup
Issued by NWS

Home | Current Version | Previous Version | Graphics & Text | Print | Product List | Glossary On
Versions: 1 2 3 4 5 6 7 8 9 10 11 12 13 14 15 16 17 18 19 20 21 22 23 24 25 26 27 28 29 30 31 32 33 34 35 36 37 38 39 40 41 42 43 44 45 46 47 48 49 50
000
ASUS43 KIND 291509
RWRIN

WEATHER ROUNDUP FOR INDIANA
NATIONAL WEATHER SERVICE INDIANAPOLIS IN
1100 AM EDT FRI AUG 29 2014

NOTE: "FAIR" INDICATES FEW OR NO CLOUDS BELOW 12,000 FEET WITH NO
SIGNIFICANT WEATHER AND/OR OBSTRUCTIONS TO VISIBILITY.

* - STATION DOES NOT REPORT WEATHER SUCH AS PRECIPITATION OR FOG.

+ - STATION NOT QUALITY CONTROLLED BY THE NATIONAL WEATHER SERVICE.
    USE DATA WITH CAUTION...ESPECIALLY DEWPOINT AND RELATIVE
    HUMIDITY OBSERVATIONS.

INZ001>003-010>013-019-020-291600-
NORTHWEST INDIANA

CITY           SKY/WX    TMP DP  RH WIND       PRES   REMARKS
GARY /AIRPORT/ PTSUNNY   75  66  73 S9        30.02R
KNOX *+        PTSUNNY   73  63  72 S7        30.03S
LA PORTE +     CLOUDY    69  64  82 S7        30.05R
MICHIGAN CITY+ PTSUNNY   72  63  73 SE5       30.03S
MONTICELLO +   PTSUNNY   73  67  80 S5        30.03S
RENSSELAER +   PTSUNNY   77  72  83 S9        30.03S
VALPARAISO     PTSUNNY   73  65  75 S8        30.04R

$$

LMZ046-743>745-291600-
SOUTHERN LAKE MICHIGAN

STATION/POSITION TIME  TEMP WIND        PRES
                       AIR  DIR/SP/G
                 (UTC) (F)  (DEG/KT/KT) (MB)
MICHIGAN CITY    1500   71  130/ 13/ 18   N/A

$$

INZ004-005-014>016-021>024-291600-
NORTH CENTRAL INDIANA

CITY           SKY/WX    TMP DP  RH WIND       PRES   REMARKS
ELKHART        CLOUDY    68  61  77 SE8       30.07S
GOSHEN         LGT RAIN  68  63  84 SE6       30.07S
LOGANSPORT +   PTSUNNY   73  63  68 SE8       30.07R
PERU/GRISSOM   PTSUNNY   73  68  86 SE9       30.07R
ROCHESTER +    PTSUNNY   75  64  69 SE9       30.07S
SOUTH BEND     CLOUDY    74  62  66 S12       30.06S
WARSAW +       PTSUNNY   72  63  73 SE5       30.08S

$$

INZ006>009-017-018-025>027-291600-
NORTHEAST INDIANA

CITY           SKY/WX    TMP DP  RH WIND       PRES   REMARKS
ANGOLA *+      MOSUNNY   66  57  72 S8        30.10S
AUBURN +       PTSUNNY   72  59  64 SE6       30.11S
FORT WAYNE     MOSUNNY   72  63  73 S10       30.10S
HUNTINGTON +   SUNNY     72  63  73 S8        30.09S

$$

INZ028-029-035-036-043>045-051>053-291600-
WEST CENTRAL INDIANA

CITY           SKY/WX    TMP DP  RH WIND       PRES   REMARKS
GREENCASTLE +  CLOUDY    70  66  88 SE5       30.06S
LAFAYETTE      MOSUNNY   74  66  76 SE8       30.03S
TERRE HAUTE    PTSUNNY   77  70  79 SE8       30.03S

$$

INZ030>032-037>040-046>048-054>057-064-065-291600-
CENTRAL INDIANA

CITY           SKY/WX    TMP DP  RH WIND       PRES   REMARKS
ANDERSON       MOSUNNY   73  63  68 SE12G17   30.10R
CP ATTERBURY + PTSUNNY   72  64  78 SE3       30.08S
FRANKFORT +    PTSUNNY   74  67  78 SE7       30.07S
INDIANAPOLIS   LGT RAIN  71  64  78 SE8       30.06R
-EAGLE CREEK   CLOUDY    72  63  73 SE7       30.07R
KOKOMO *+      PTSUNNY   72  64  78 S9G17     30.08R
MARION +       MOSUNNY   74  62  66 S9        30.09S HAZE
MT COMFORT *+  CLOUDY    70  66  88 SE5       30.09R
SHELBYVILLE    CLOUDY    74  65  73 SE3       30.07S
ZIONSVILLE +   DRIZZLE   71  63  77 SE6       30.08S

$$

INZ033-034-041-042-049-050-058-059-291600-
EAST CENTRAL INDIANA

CITY           SKY/WX    TMP DP  RH WIND       PRES   REMARKS
MUNCIE         MOSUNNY   74  61  63 S8        30.09R

$$

INZ060-061-067>069-081>083-085>088-291600-
SOUTHWEST INDIANA

CITY           SKY/WX    TMP DP  RH WIND       PRES   REMARKS
EVANSVILLE     MOSUNNY   82  74  76 SE5       30.01F
WASHINGTON +   SUNNY     82  74  76 SE7       30.02S

$$

INZ062-063-066-070>080-084-089>092-291600-
SOUTH CENTRAL AND SOUTHEAST INDIANA

CITY           SKY/WX    TMP DP  RH WIND       PRES   REMARKS
BLOOMINGTON    PTSUNNY   78  68  71 SE8       30.06R
SEYMOUR +      MOSUNNY   81  59  47 SE7       30.06

$$




USA.gov is the U.S. government's official web portal to all federal, state and local government web resources and services.